Terminal Aerodrome Forecast
Issued by NWS Lake Charles, LA

Home | Current Version | Previous Version | Text Only | Print | Product List | Glossary On
Versions: 1 2 3 4 5 6 7 8 9 10 11 12 13 14 15 16 17 18 19
000
FTUS44 KLCH 041700
TAFAEX
TAF
KAEX 041720Z 0418/0518 18012KT P6SM VCSH FEW015 BKN028 OVC040
     FM042000 19012G20KT P6SM VCSH SCT025 OVC050
     FM050000 18006KT 6SM BR VCSH OVC035
     FM050400 36014G20KT 5SM -RA BR OVC007=

USA.gov is the U.S. government's official web portal to all federal, state and local government web resources and services.